Location: Bord�res
(43.2000°N, 0.2167°W)
Time: 12:09:12
(UTC+00:00)

H-2A R/B - Pass Details

Date: 03 March 2021
Orbit: 732 x 837 km, 98.2° (Epoch: 20 April)

Event Time Altitude Azimuth Distance (km) Brightness Sun altitude
Rises 19:39:59 0° 197° (SSW) 3,360 5.4 -20.3°
Reaches altitude 10° 19:42:41 10° 209° (SSW) 2,439 4.8 -20.8°
Maximum altitude 19:47:14 27° 266° (W) 1,556 4.3 -21.6°
Drops below altitude 10° 19:51:50 10° 324° (NW) 2,457 5.3 -22.4°
Sets 19:54:34 0° 336° (NNW) 3,390 5.9 -22.9°
